Location: Trois-Rivi�res
(46.3500°N, 72.5500°W)
Time: 20:25:01
(UTC-04:00)

Vanguard 2 - Visible Passes

Search period start: 18 July 2018 00:00
Search period end: 28 July 2018 00:00
Orbit: 553 x 2939 km, 32.9° (Epoch: 18 July)

Date Brightness Start Highest point End Pass type
(mag) Time Alt. Az. Time Alt. Az. Time Alt. Az.
18 Jul 10.4 01:03:20 10° W 01:17:07 31° SSW 01:19:49 29° SSW visible
18 Jul 10.6 20:57:43 10° WSW 21:13:41 51° S 21:29:34 10° ESE visible
18 Jul 10.4 23:08:37 10° W 23:24:55 45° SSW 23:34:20 24° SE visible
19 Jul 10.6 01:22:02 10° W 01:34:30 26° SW 01:35:39 26° SSW visible
19 Jul 10.6 21:15:33 10° WSW 21:31:36 51° S 21:47:28 10° ESE visible
19 Jul 10.5 23:26:47 10° W 23:42:39 41° SSW 23:50:15 28° SSE visible
20 Jul 10.9 01:41:10 10° W 01:51:34 20° SW 01:51:34 20° SW visible
20 Jul 10.6 21:33:28 10° WSW 21:49:29 50° S 22:04:53 11° ESE visible
20 Jul 10.5 23:45:04 10° W 00:00:17 37° SSW 00:06:14 29° S visible
21 Jul 11.1 02:01:11 10° WSW 02:07:33 15° SW 02:07:33 15° SW visible
21 Jul 10.6 21:51:28 10° WSW 22:07:22 48° SSW 22:20:55 16° SE visible
22 Jul 10.6 00:03:33 10° W 00:17:48 31° SSW 00:22:16 28° S visible
22 Jul 10.6 22:09:32 10° W 22:25:11 45° SSW 22:37:00 20° SE visible
23 Jul 10.8 00:22:19 10° W 00:35:14 26° SW 00:38:21 24° SSW visible
23 Jul 10.7 22:27:43 10° W 22:42:57 41° SSW 22:53:08 22° SSE visible
24 Jul 11.0 00:41:32 10° W 00:52:35 20° SW 00:54:29 20° SW visible
24 Jul 10.7 20:35:14 10° WSW 20:49:43 49° S 21:06:17 10° ESE visible
24 Jul 10.8 22:46:01 10° W 23:00:37 36° SSW 23:09:19 23° SSE visible
25 Jul 11.3 01:01:44 10° WSW 01:09:52 15° SW 01:10:40 15° SW visible
25 Jul 10.7 20:53:13 10° WSW 21:07:35 47° SSW 21:23:55 10° SE visible
25 Jul 10.9 23:04:32 10° W 23:18:13 30° SSW 23:25:33 23° S visible
26 Jul 10.8 21:11:18 10° W 21:25:26 43° SSW 21:40:29 12° SE visible
26 Jul 11.1 23:23:22 10° W 23:35:43 25° SW 23:41:50 20° SSW visible
27 Jul 10.9 21:29:30 10° W 21:43:14 38° SSW 21:56:49 14° SSE visible
